Wind_Speed
27 26 27 27 27 27 28 27 26 25 25 25 26 26 27 27 28 28 29 29 29 29 28 29 30 30 31 32 33 34 34 35 36 36 37 37 37 37 38 39 39 39 40 40
28 27 28 28 27 28 29 28 27 27 25 25 27 27 27 28 29 30 30 30 29 29 29 29 30 29 30 31 32 32 34 35 35 36 36 36 36 37 38 38 38 39 39 39
28 28 29 29 27 28 28 27 28 27 25 26 27 28 28 28 29 29 30 31 31 30 29 29 30 29 29 30 31 31 32 33 34 35 36 36 36 36 37 37 37 37 38 38
27 28 29 27 27 28 28 28 29 27 27 27 27 27 28 28 28 28 30 30 31 31 30 29 29 29 30 30 31 31 32 32 33 34 35 35 35 36 36 36 36 36 37 37
27 28 27 26 26 26 27 27 28 27 27 27 27 27 28 28 28 28 28 29 30 31 31 30 30 30 30 31 31 31 31 32 32 32 33 34 34 35 35 36 36 36 36 37
27 28 27 26 25 25 26 26 26 26 26 26 27 27 27 28 28 28 28 28 29 30 30 30 30 30 30 30 30 30 31 32 32 32 33 33 33 34 34 35 36 36 36 37
26 26 26 24 24 23 24 25 25 26 25 25 26 26 26 27 27 28 28 28 28 28 29 29 30 29 29 29 29 29 30 31 32 32 32 33 33 33 33 33 34 35 35 36
24 24 23 22 22 22 23 24 25 26 26 26 26 26 26 26 27 27 27 27 27 27 27 28 29 29 28 28 28 29 29 30 30 31 31 32 32 32 33 32 33 34 34 34
23 23 23 22 22 22 22 23 24 25 26 27 27 26 26 26 27 27 26 26 26 26 27 27 27 28 28 28 28 28 29 30 29 30 30 31 31 31 32 32 32 32 33 33
23 22 22 22 23 23 23 24 24 25 25 27 27 27 26 26 26 27 27 26 26 26 26 26 26 27 28 28 28 28 29 29 29 29 30 30 30 30 31 31 31 31 31 32
23 22 23 23 23 22 23 24 25 26 26 27 27 27 27 26 26 26 26 26 26 25 25 25 25 26 27 28 28 28 29 29 29 29 30 30 30 30 31 31 31 31 32 32
22 22 22 22 22 22 23 23 24 25 25 26 26 26 26 26 26 26 26 26 26 25 25 25 25 25 26 27 27 27 28 28 28 29 29 29 29 30 30 30 31 31 31 31
22 22 22 22 22 22 22 22 22 23 23 24 25 25 26 26 26 26 25 25 26 25 25 25 25 25 25 26 26 26 26 27 27 28 28 29 29 29 30 30 31 30 30 30
21 21 21 21 21 21 21 21 21 21 22 23 23 24 24 24 24 24 24 24 24 24 25 25 24 24 25 25 25 25 25 26 27 27 27 28 28 28 28 28 29 29 29 29
21 21 21 20 20 20 20 20 20 20 20 21 22 22 22 22 22 23 24 24 24 24 24 23 23 24 25 26 26 25 25 25 26 27 27 27 28 28 28 28 28 28 28 28
19 20 20 20 20 20 20 20 20 20 20 20 21 21 21 22 22 22 23 23 24 23 23 23 23 24 25 26 26 26 26 26 27 27 27 27 28 28 28 27 27 27 27 27
19 19 19 19 20 20 20 20 19 19 19 20 20 21 22 22 22 23 23 23 24 24 24 24 24 24 25 26 26 26 26 27 27 27 27 27 27 27 27 26 26 26 26 26
19 19 19 19 19 19 19 19 19 19 19 19 20 21 21 22 23 23 23 23 24 24 25 25 25 25 25 25 25 26 26 26 26 26 26 26 26 26 27 26 27 27 26 26
20 19 19 19 19 19 19 18 18 19 19 20 20 21 22 22 23 23 23 23 23 24 24 25 25 24 24 24 25 25 25 26 26 25 25 25 25 26 26 26 26 26 26 25
18 18 18 18 18 18 18 18 18 18 19 19 20 20 20 20 21 21 22 22 22 22 23 23 23 23 24 24 24 24 24 24 25 25 24 24 24 24 24 25 25 25 24 24
16 16 17 17 17 17 17 17 17 17 18 18 18 19 19 19 19 20 20 21 21 21 21 22 22 22 23 23 23 23 23 22 22 22 22 23 23 23 23 23 23 23 22 22
15 15 15 16 16 16 16 17 17 17 17 17 17 17 18 18 18 18 19 19 19 19 20 20 20 20 20 21 21 21 21 21 20 20 20 20 21 21 21 21 21 21 21 21
15 16 16 16 16 16 16 17 17 17 17 17 17 17 17 16 16 16 17 17 17 18 18 18 18 19 19 19 19 18 18 18 18 18 18 18 19 19 20 20 20 20 19 20
16 16 16 16 16 16 16 16 17 16 16 16 16 16 15 15 15 15 16 16 16 16 17 17 17 17 17 17 16 16 16 16 16 16 17 17 18 18 19 19 19 18 18 18
15 16 15 15 15 15 15 15 15 15 15 15 15 15 14 14 15 15 15 15 16 16 16 16 16 15 15 15 15 15 15 15 15 16 16 17 17 17 18 18 18 17 17 17
15 15 15 14 14 14 14 14 14 14 14 14 13 14 14 14 14 15 15 15 15 15 15 15 15 14 14 14 13 13 14 14 15 15 16 17 17 17 17 17 17 17 17 17
15 15 14 14 13 14 14 14 13 13 13 13 13 14 14 14 14 14 14 14 14 14 14 14 14 14 13 13 13 13 14 14 15 15 15 16 16 16 16 16 16 16 16 16
Wind_Direction
263 263 263 261 260 261 260 262 261 256 254 252 254 256 255 253 252 251 251 251 251 251 251 252 252 254 255 256 256 256 256 256 256 256 257 257 258 258 259 260 259 259 262 264
263 262 263 262 261 261 259 260 259 256 255 255 255 255 254 254 253 251 251 252 252 252 251 252 254 256 257 258 258 258 257 257 256 256 256 257 259 259 260 260 260 260 261 263
266 264 264 264 263 262 260 258 256 255 255 254 254 255 256 255 254 253 252 253 253 253 253 254 255 256 258 258 258 260 260 259 258 257 257 258 259 260 260 260 260 261 262 263
269 267 265 266 266 264 260 255 253 254 254 253 253 255 255 255 254 254 254 254 253 254 255 257 258 258 259 259 259 260 261 260 260 259 257 258 259 259 259 260 261 263 264 264
268 270 269 266 266 265 259 254 253 253 253 253 253 254 254 254 254 254 255 255 255 255 255 258 259 259 259 260 261 262 262 261 261 259 257 258 260 259 259 260 261 263 263 265
267 269 270 270 267 264 259 255 252 253 254 255 255 255 255 255 255 254 255 256 255 256 257 258 259 259 260 261 262 262 262 261 260 259 258 258 259 259 259 260 261 263 264 265
265 267 269 271 270 265 259 257 253 253 253 254 255 255 255 255 255 255 256 256 257 257 258 259 259 260 260 262 262 262 261 260 259 259 259 258 257 258 259 260 261 263 264 266
266 265 269 269 268 266 261 257 255 254 253 254 255 255 255 255 255 255 255 256 257 258 259 260 261 261 260 260 261 261 260 260 259 258 257 256 256 258 260 262 263 264 264 266
265 266 267 267 267 268 264 260 257 256 255 254 254 253 254 254 254 255 256 256 258 260 262 263 263 262 260 260 261 261 259 259 259 259 257 256 257 260 262 263 264 266 266 267
264 265 267 267 267 268 266 263 259 257 255 254 253 253 253 253 254 257 258 258 260 263 264 265 264 263 261 260 261 261 260 260 260 260 259 258 258 260 262 264 265 267 269 269
264 266 265 264 266 267 267 265 263 261 258 255 253 253 252 254 255 256 258 259 260 263 265 266 265 263 262 261 262 261 261 261 261 261 260 260 261 262 263 264 266 268 270 271
262 263 263 264 265 267 267 265 265 263 261 257 254 252 253 254 255 256 258 258 261 263 266 267 266 264 263 263 262 262 262 262 261 261 261 261 262 262 262 264 265 267 269 270
262 263 265 268 269 269 268 266 263 261 258 256 254 253 253 254 254 256 257 258 260 263 266 267 267 265 263 263 263 262 262 262 261 261 260 261 262 262 263 265 266 267 268 268
265 266 267 267 267 267 267 265 262 261 258 256 254 253 253 254 256 256 258 259 260 263 266 267 266 266 264 263 264 264 264 263 261 261 261 261 263 264 264 265 266 267 267 267
269 268 266 265 267 268 268 266 265 264 260 257 257 256 256 257 257 258 259 260 261 264 265 266 266 266 265 264 265 266 266 264 263 262 262 263 263 264 265 265 265 265 265 266
269 267 263 263 267 269 269 268 268 266 261 259 259 258 258 259 259 260 260 261 263 265 266 266 266 267 267 268 267 267 266 265 264 264 264 264 263 263 264 263 263 264 265 265
267 265 262 262 266 268 269 269 269 264 260 259 259 258 259 260 260 261 262 262 263 266 269 270 269 269 270 269 268 268 268 266 265 265 265 264 262 261 262 262 262 264 264 264
267 265 264 265 267 267 268 268 265 260 259 259 260 260 260 260 260 261 262 264 266 267 271 273 271 271 271 271 270 269 269 267 265 265 263 261 260 260 261 261 262 263 263 263
266 267 266 266 267 268 269 268 265 262 262 263 263 263 263 262 261 260 262 265 267 269 270 272 272 271 272 272 272 271 269 267 266 263 262 260 259 260 261 261 261 262 263 263
266 266 266 267 268 270 270 269 266 264 263 264 264 264 263 263 263 262 263 265 267 269 270 272 272 273 273 273 272 272 271 268 265 262 261 260 259 260 260 261 261 262 262 262
264 265 265 266 268 270 269 266 265 265 266 267 266 263 261 262 264 264 264 266 268 270 270 272 272 274 274 272 271 270 270 268 265 262 259 258 258 260 261 261 262 262 261 261
263 264 266 269 270 270 268 266 266 267 268 269 268 265 264 265 264 264 265 266 267 269 272 272 273 274 274 273 271 270 269 267 265 262 260 259 259 261 262 261 260 259 259 259
266 267 269 270 269 269 269 268 267 268 269 268 268 268 266 264 265 265 267 269 270 272 273 274 275 275 274 272 271 269 267 266 264 261 261 262 261 260 261 259 258 258 258 257
267 270 272 271 270 270 269 269 269 270 270 269 269 267 264 265 266 267 268 270 273 274 274 275 276 275 273 271 267 265 264 264 264 262 263 264 262 261 260 258 257 256 255 255
268 272 272 272 271 271 270 270 271 269 268 269 267 265 265 266 267 267 270 273 275 275 275 275 276 274 271 268 266 264 264 265 266 265 265 265 264 262 259 257 255 253 253 253
267 270 271 271 272 272 271 271 270 268 267 266 265 264 266 267 269 271 272 274 274 275 276 275 275 273 269 266 265 266 266 267 268 268 268 267 264 262 259 255 253 251 250 250
264 267 269 272 274 276 276 273 271 268 266 265 265 266 268 268 271 273 274 273 273 274 275 274 272 269 266 265 265 268 269 269 271 271 270 268 265 262 258 254 252 250 249 248
Height
5559 5560 5560 5560 5561 5562 5562 5562 5562 5564 5565 5568 5568 5568 5569 5570 5572 5574 5576 5578 5580 5581 5583 5584 5586 5587 5589 5590 5591 5593 5594 5595 5597 5598 5600 5601 5603 5604 5606 5607 5608 5609 5610 5611
5551 5552 5551 5552 5553 5554 5553 5554 5555 5556 5558 5560 5560 5561 5562 5563 5564 5566 5568 5569 5571 5573 5575 5576 5577 5579 5580 5581 5582 5583 5585 5586 5587 5588 5590 5591 5592 5594 5595 5596 5597 5599 5599 5600
5543 5543 5543 5544 5547 5546 5546 5546 5547 5548 5551 5551 5552 5553 5554 5555 5556 5558 5560 5561 5563 5564 5566 5568 5569 5570 5572 5573 5574 5574 5575 5576 5577 5578 5580 5581 5582 5583 5584 5586 5587 5588 5589 5589
5534 5535 5535 5540 5538 5537 5537 5538 5539 5540 5541 5543 5544 5545 5546 5547 5549 5550 5552 5553 5555 5556 5558 5559 5560 5561 5562 5564 5564 5565 5566 5567 5567 5568 5570 5571 5572 5573 5574 5575 5577 5578 5578 5579
5527 5526 5526 5530 5530 5529 5529 5530 5532 5533 5534 5535 5536 5537 5539 5540 5541 5542 5544 5545 5546 5548 5549 5550 5551 5552 5553 5554 5555 5556 5557 5557 5558 5559 5560 5561 5562 5563 5564 5565 5566 5567 5568 5568
5519 5518 5519 5523 5522 5521 5522 5522 5524 5525 5526 5527 5528 5530 5532 5532 5533 5534 5535 5537 5538 5539 5540 5541 5542 5543 5544 5545 5546 5547 5547 5547 5548 5549 5550 5551 5552 5553 5554 5555 5556 5557 5557 5558
5511 5510 5511 5514 5513 5513 5515 5517 5517 5517 5518 5519 5520 5522 5523 5524 5525 5526 5528 5529 5530 5531 5531 5532 5533 5534 5535 5536 5537 5537 5537 5538 5538 5539 5540 5541 5542 5543 5544 5545 5545 5546 5547 5547
5504 5504 5507 5506 5505 5506 5506 5507 5507 5508 5510 5511 5512 5513 5515 5516 5517 5518 5519 5520 5521 5522 5523 5523 5524 5525 5526 5527 5527 5527 5528 5528 5529 5530 5530 5531 5532 5533 5534 5535 5535 5536 5536 5536
5498 5499 5499 5498 5498 5498 5498 5498 5499 5500 5501 5503 5504 5505 5506 5508 5509 5510 5511 5512 5513 5514 5514 5515 5515 5516 5516 5517 5517 5518 5519 5519 5520 5520 5521 5522 5523 5524 5524 5525 5526 5526 5526 5527
5490 5491 5491 5490 5490 5490 5490 5490 5491 5492 5493 5494 5496 5497 5498 5500 5501 5502 5503 5504 5504 5505 5506 5506 5506 5506 5507 5508 5508 5509 5509 5510 5510 5511 5512 5512 5513 5514 5515 5516 5516 5516 5516 5517
5482 5483 5483 5483 5483 5483 5483 5483 5483 5484 5485 5486 5487 5489 5490 5492 5493 5494 5494 5495 5496 5497 5497 5497 5497 5498 5498 5499 5499 5500 5500 5501 5501 5502 5503 5503 5504 5505 5505 5506 5506 5507 5507 5506
5475 5476 5475 5476 5476 5475 5475 5475 5476 5476 5477 5478 5479 5480 5482 5483 5484 5485 5486 5487 5487 5488 5489 5489 5489 5489 5490 5490 5490 5491 5491 5492 5492 5493 5493 5494 5495 5496 5496 5497 5497 5497 5496 5496
5467 5468 5468 5468 5468 5468 5468 5468 5468 5468 5469 5470 5471 5472 5473 5474 5476 5477 5478 5479 5480 5480 5481 5481 5481 5481 5481 5481 5481 5482 5482 5483 5483 5484 5484 5485 5485 5486 5487 5487 5487 5487 5487 5487
5461 5461 5461 5461 5461 5461 5461 5460 5460 5461 5461 5462 5463 5464 5465 5466 5468 5469 5470 5471 5472 5472 5473 5473 5473 5473 5473 5473 5473 5473 5473 5474 5474 5474 5475 5475 5476 5476 5477 5477 5478 5478 5478 5478
5454 5454 5454 5454 5454 5454 5454 5454 5454 5454 5454 5455 5456 5457 5458 5459 5460 5461 5462 5463 5464 5464 5465 5465 5465 5465 5465 5465 5465 5465 5465 5465 5465 5465 5466 5466 5467 5467 5468 5468 5468 5469 5469 5469
5447 5447 5447 5447 5448 5448 5448 5448 5447 5447 5447 5448 5449 5450 5451 5452 5453 5454 5454 5455 5456 5456 5457 5457 5457 5457 5456 5456 5456 5456 5456 5456 5456 5456 5457 5457 5457 5458 5458 5459 5459 5460 5460 5460
5441 5441 5441 5441 5441 5441 5441 5441 5441 5441 5441 5442 5442 5443 5444 5445 5446 5446 5447 5448 5448 5449 5449 5449 5449 5448 5448 5447 5447 5447 5447 5447 5447 5447 5447 5447 5448 5448 5449 5450 5450 5451 5451 5451
5434 5434 5435 5435 5435 5435 5435 5435 5435 5435 5435 5435 5436 5436 5437 5438 5438 5439 5439 5440 5441 5441 5441 5440 5440 5440 5439 5439 5438 5438 5438 5438 5438 5438 5438 5438 5439 5439 5440 5441 5441 5442 5443 5443
5428 5428 5428 5428 5429 5429 5429 5428 5428 5428 5428 5429 5429 5429 5430 5430 5431 5431 5432 5432 5433 5433 5432 5432 5431 5431 5430 5430 5429 5429 5429 5429 5429 5429 5429 5429 5430 5431 5431 5432 5433 5433 5434 5434
5422 5422 5422 5422 5423 5422 5422 5422 5422 5422 5422 5422 5422 5422 5422 5422 5423 5423 5424 5424 5424 5424 5424 5424 5423 5422 5422 5421 5421 5420 5420 5420 5420 5420 5421 5421 5422 5422 5423 5423 5424 5424 5425 5425
5416 5417 5417 5417 5417 5417 5416 5416 5416 5416 5416 5415 5415 5415 5415 5416 5416 5416 5417 5417 5417 5417 5416 5416 5415 5415 5414 5413 5412 5412 5412 5412 5412 5412 5413 5413 5414 5414 5415 5415 5416 5416 5417 5417
5411 5411 5411 5411 5411 5411 5411 5411 5410 5410 5410 5410 5409 5409 5409 5409 5409 5409 5409 5410 5410 5409 5409 5408 5408 5407 5406 5405 5405 5405 5404 5404 5405 5405 5405 5406 5406 5407 5407 5408 5408 5409 5409 5410
5406 5406 5406 5406 5406 5406 5405 5405 5405 5405 5404 5404 5404 5403 5403 5403 5403 5403 5403 5404 5403 5403 5402 5402 5401 5400 5399 5399 5398 5398 5398 5398 5398 5398 5399 5399 5399 5400 5400 5401 5401 5402 5402 5403
5400 5400 5400 5400 5400 5400 5400 5399 5399 5399 5398 5398 5398 5398 5397 5397 5398 5397 5397 5397 5397 5396 5396 5395 5394 5394 5393 5392 5392 5392 5392 5392 5392 5392 5392 5392 5393 5393 5393 5394 5394 5395 5395 5396
5395 5395 5395 5395 5395 5394 5394 5394 5394 5393 5393 5393 5392 5392 5392 5392 5392 5392 5392 5391 5391 5390 5390 5389 5388 5388 5387 5387 5386 5386 5386 5386 5386 5386 5386 5386 5386 5386 5386 5387 5387 5388 5388 5389
5389 5389 5389 5389 5389 5389 5389 5388 5388 5388 5388 5388 5388 5388 5388 5387 5387 5387 5386 5386 5385 5385 5384 5384 5383 5382 5382 5381 5381 5381 5381 5381 5380 5380 5380 5380 5380 5380 5380 5380 5381 5382 5382 5383
5384 5384 5384 5384 5384 5384 5383 5383 5383 5383 5383 5383 5383 5383 5383 5382 5382 5382 5381 5380 5380 5380 5379 5378 5378 5377 5377 5377 5376 5376 5376 5375 5375 5374 5374 5373 5373 5374 5374 5374 5375 5376 5377 5377